Dallas Redbird, TX

1:57 AM CST on December 13, 2017 (GMT -0600)
Redbird

Weather History for KRBD - October, 2013

Change the Weather History Date:

Sunday, October 13, 2013

  Actual Average Record
Temperature  
Mean Temperature 72 °F -  
Max Temperature 75 °F 76 °F 91 °F (1999)
Min Temperature 69 °F 56 °F 46 °F (2006)
Cooling Degree Days 7    
Growing Degree Days 22 (Base 50)    
Moisture  
Dew Point 67 °F    
Average Humidity 84    
Maximum Humidity 94    
Minimum Humidity 73    
Precipitation  
Precipitation 0.00 in - - ()
Sea Level Pressure  
Sea Level Pressure 30.13 in    
Wind  
Wind Speed 5 mph (East)    
Max Wind Speed 12 mph    
Max Gust Speed -    
Visibility 9 miles    
Events Rain    
Averages and records for this station are not official NWS values.
T = Trace of Precipitation, MM = Missing Value Source: NWS Daily Summary

Daily Weather History Graph

Daily Weather History Graph

Search for Another Location

Airport or City:

Trip Planner

Search our weather history database for the weather conditions in past years. The results will help you decide how hot, cold, wet, or windy it might be!

Date:

Astronomy

Oct. 13, 2013 Rise Set
Actual Time 7:30 AM CDT 6:56 PM CDT
Civil Twilight 7:05 AM CDT 7:21 PM CDT
Nautical Twilight 6:36 AM CDT 7:49 PM CDT
Astronomical Twilight 6:08 AM CDT 8:18 PM CDT
Moon 3:33 PM CDT 1:58 AM CDT
Length of Visible Light 12h 15m
Length of Day
11h 26m
Waxing Gibbous, 69% of the Moon is Illuminated
Oct 13
Waxing Gibbous
Oct 18
Full
Oct 26
Last Quarter
Nov 3
New
Nov 9
First Quarter

Hourly Weather History & Observations

Time (CDT) Temp. Dew Point Humidity Pressure Visibility Wind Dir Wind Speed Gust Speed Precip Events Conditions
12:53 AM 70.0 °F 66.0 °F 87% 30.05 in 10.0 mi SSE 6.9 mph - N/A   Clear
1:53 AM 69.1 °F 66.0 °F 90% 30.05 in 10.0 mi Calm Calm - N/A   Clear
2:43 AM 69.8 °F 66.2 °F 88% 30.08 in 10.0 mi East 3.5 mph - N/A   Mostly Cloudy
2:53 AM 70.0 °F 66.9 °F 90% 30.06 in 10.0 mi East 3.5 mph - N/A   Overcast
3:44 AM 69.8 °F 66.2 °F 88% 30.10 in 10.0 mi South 4.6 mph - N/A   Mostly Cloudy
3:53 AM 69.1 °F 66.0 °F 90% 30.08 in 10.0 mi Calm Calm - N/A   Mostly Cloudy
4:41 AM 69.8 °F 64.4 °F 83% 30.09 in 10.0 mi Calm Calm - N/A   Mostly Cloudy
4:53 AM 69.1 °F 64.9 °F 87% 30.07 in 10.0 mi East 3.5 mph - N/A   Scattered Clouds
5:53 AM 69.1 °F 66.0 °F 90% 30.08 in 10.0 mi ENE 3.5 mph - N/A   Clear
6:33 AM 69.8 °F 66.2 °F 88% 30.11 in 7.0 mi ENE 3.5 mph - N/A   Scattered Clouds
6:45 AM 69.8 °F 66.2 °F 88% 30.12 in 8.0 mi Calm Calm - N/A   Mostly Cloudy
6:53 AM 69.1 °F 66.0 °F 90% 30.11 in 8.0 mi ENE 4.6 mph - N/A   Mostly Cloudy
7:53 AM 70.0 °F 66.9 °F 90% 30.13 in 7.0 mi East 4.6 mph - N/A   Overcast
8:53 AM 70.0 °F 66.9 °F 90% 30.17 in 9.0 mi SE 4.6 mph - N/A   Overcast
9:41 AM 71.6 °F 66.2 °F 83% 30.20 in 8.0 mi ESE 5.8 mph - N/A   Overcast
9:53 AM 71.1 °F 68.0 °F 90% 30.18 in 9.0 mi SE 4.6 mph - N/A   Overcast
10:53 AM 73.0 °F 68.0 °F 84% 30.19 in 10.0 mi ESE 3.5 mph - N/A   Overcast
11:15 AM 73.4 °F 66.2 °F 78% 30.21 in 10.0 mi ESE 4.6 mph - N/A   Overcast
11:53 AM 73.0 °F 68.0 °F 84% 30.19 in 10.0 mi ENE 4.6 mph - N/A   Overcast
12:27 PM 71.6 °F 69.8 °F 94% 30.20 in 2.5 mi East 6.9 mph - 0.00 in Rain Light Rain
12:36 PM 71.6 °F 69.8 °F 94% 30.19 in 2.5 mi East 8.1 mph - 0.00 in Rain Light Rain
12:41 PM 73.4 °F 69.8 °F 88% 30.19 in 3.0 mi ENE 5.8 mph - 0.00 in Rain Light Rain
12:53 PM 73.0 °F 69.1 °F 87% 30.16 in 2.5 mi ENE 8.1 mph - 0.00 in Rain Light Rain
1:04 PM 73.4 °F 69.8 °F 88% 30.17 in 7.0 mi ENE 9.2 mph - 0.00 in   Overcast
1:42 PM 73.4 °F 68.0 °F 83% 30.16 in 10.0 mi ESE 10.4 mph - 0.00 in   Overcast
1:53 PM 73.9 °F 68.0 °F 82% 30.14 in 10.0 mi ESE 8.1 mph - 0.00 in   Overcast
2:00 PM 73.4 °F 68.0 °F 83% 30.15 in 10.0 mi ESE 9.2 mph - N/A   Overcast
2:33 PM 75.2 °F 68.0 °F 78% 30.13 in 10.0 mi ESE 10.4 mph - N/A   Overcast
2:53 PM 73.9 °F 68.0 °F 82% 30.11 in 9.0 mi East 8.1 mph - N/A   Overcast
3:53 PM 75.9 °F 68.0 °F 76% 30.09 in 8.0 mi East 11.5 mph - N/A   Mostly Cloudy
4:38 PM 75.2 °F 66.2 °F 73% 30.11 in 9.0 mi East 9.2 mph - N/A   Mostly Cloudy
4:45 PM 75.2 °F 66.2 °F 73% 30.11 in 9.0 mi East 10.4 mph - N/A   Scattered Clouds
4:53 PM 75.0 °F 66.9 °F 76% 30.10 in 9.0 mi East 11.5 mph - N/A   Scattered Clouds
5:02 PM 75.2 °F 66.2 °F 73% 30.12 in 9.0 mi ENE 10.4 mph - N/A   Mostly Cloudy
5:53 PM 75.0 °F 66.9 °F 76% 30.11 in 9.0 mi East 8.1 mph - N/A   Mostly Cloudy
6:53 PM 73.9 °F 66.9 °F 79% 30.12 in 10.0 mi East 5.8 mph - N/A   Overcast
7:53 PM 73.0 °F 66.0 °F 79% 30.14 in 10.0 mi East 9.2 mph - N/A   Overcast
8:53 PM 73.0 °F 66.0 °F 79% 30.14 in 10.0 mi ESE 8.1 mph - N/A   Overcast
9:53 PM 72.0 °F 66.0 °F 81% 30.16 in 10.0 mi East 5.8 mph - N/A   Overcast
10:53 PM 72.0 °F 66.0 °F 81% 30.14 in 10.0 mi ESE 5.8 mph - N/A   Overcast
11:20 PM 71.6 °F 66.2 °F 83% 30.15 in 10.0 mi ESE 6.9 mph - N/A   Overcast
11:35 PM 71.6 °F 66.2 °F 83% 30.15 in 10.0 mi ESE 6.9 mph - N/A   Overcast
11:53 PM 72.0 °F 66.9 °F 84% 30.12 in 10.0 mi ESE 8.1 mph - 0.00 in Rain Light Rain